Date String (YYYY-MM-DD hh:mm:ss) UTC,Instrument flags,absolute air pressure of the measurement (hPa),sample flow rate (lpm),inlet stack bypass flow (lpm),air temperature of the measurement (°C),ambient temperature measured by the external sensor (°C),aerosol sample conditioner tube jacket temperature (°C),OPC LED temperature (°C),internal box temperature (°C),relative humidity of the measurement (%),span deviation,mass concentration of particles derived from Lorenz-Mie calculation of OPC scattering (μg/m³),mass concentration of particles derived from Lorenz-Mie calculation of OPC scattering (μg/m³),mass concentration of particles derived from Lorenz-Mie calculation of OPC scattering (μg/m³)
DateTimeUTC,F1_M11,P_M11,Q1_M11,Q2_M11,T1_M11,T2_M11,T3_M11,T4_M11,T5_M11,U1_M11,ZSPAN_M11,X0_M11,X2_M11,X1_M11
2023-11-11 12:00:00,SystemResetWarning,0830.6,5.00,000.00,021.6,020.7,000.0,030.0,023.1,7.7,0000.0,0005.24,0002.96,0002.16
2023-11-11 12:01:00,SystemResetWarning,0830.6,5.00,000.00,021.6,020.7,000.0,030.0,023.0,7.6,0000.0,0005.04,0002.92,0002.16
2023-11-11 12:02:00,SystemResetWarning,0830.6,5.00,000.00,021.6,020.7,000.0,030.0,023.0,7.4,0000.0,0004.90,0002.89,0002.18
2023-11-11 12:03:00,SystemResetWarning,0830.7,5.00,000.00,021.6,020.7,000.0,030.0,023.1,7.3,0000.0,0005.00,0002.95,0002.20
2023-11-11 12:04:00,SystemResetWarning,0830.7,4.99,000.00,021.6,020.8,000.0,030.0,023.1,7.4,0000.0,0005.25,0002.99,0002.21
2023-11-11 12:05:00,SystemResetWarning,0830.7,5.00,000.00,021.6,020.8,000.0,030.0,023.1,7.3,0000.0,0005.71,0003.06,0002.21
2023-11-11 12:06:00,SystemResetWarning,0830.7,5.01,000.00,021.7,020.8,000.0,030.0,023.1,7.2,0000.0,0005.79,0003.09,0002.21
2023-11-11 12:07:00,SystemResetWarning,0830.7,5.00,000.00,021.7,020.8,000.0,030.0,023.1,7.3,0000.0,0005.88,0003.10,0002.21
2023-11-11 12:08:00,SystemResetWarning,0830.7,4.99,000.00,021.7,020.8,000.0,030.0,023.1,7.4,0000.0,0005.67,0003.09,0002.22
2023-11-11 12:09:00,SystemResetWarning,0830.6,4.99,000.00,021.7,020.8,000.0,030.0,023.2,7.4,0000.0,0005.35,0003.08,0002.22
2023-11-11 12:10:00,SystemResetWarning,0830.7,5.00,000.00,021.7,020.8,000.0,030.0,023.2,7.3,0000.0,0005.30,0003.06,0002.22
2023-11-11 12:11:00,SystemResetWarning,0830.6,5.01,000.00,021.7,020.9,000.0,030.0,023.2,7.4,0000.0,0005.57,0003.08,0002.24
2023-11-11 12:12:00,SystemResetWarning,0830.6,5.01,000.00,021.7,020.9,000.0,030.0,023.2,7.5,0000.0,0007.11,0003.10,0002.23
2023-11-11 12:13:00,SystemResetWarning,0830.6,5.00,000.00,021.7,020.9,000.0,030.0,023.1,7.6,0000.0,0007.45,0003.12,0002.24
2023-11-11 12:14:00,SystemResetWarning,0830.7,4.99,000.00,021.7,020.9,000.0,030.0,023.1,7.6,0000.0,0008.98,0003.15,0002.24
2023-11-11 12:15:00,SystemResetWarning,0830.7,5.00,000.00,021.7,020.9,000.0,030.0,023.2,7.6,0000.0,0009.06,0003.14,0002.22
2023-11-11 12:16:00,SystemResetWarning,0830.7,4.99,000.00,021.7,020.9,000.0,030.0,023.1,7.7,0000.0,0008.94,0003.15,0002.24
2023-11-11 12:17:00,SystemResetWarning,0830.6,5.00,000.00,021.7,020.9,000.0,030.0,023.2,7.7,0000.0,0008.92,0003.16,0002.24
2023-11-11 12:18:00,SystemResetWarning,0830.6,5.00,000.00,021.7,020.9,000.0,030.0,023.1,7.3,0000.0,0009.27,0003.15,0002.24
2023-11-11 12:19:00,SystemResetWarning,0830.6,5.00,000.00,021.7,020.9,000.0,030.0,023.1,7.4,0000.0,0009.46,0003.14,0002.23
2023-11-11 12:20:00,SystemResetWarning,0830.5,5.00,000.00,021.7,020.9,000.0,030.1,023.2,7.6,0000.0,0009.85,0003.15,0002.25
2023-11-11 12:21:00,SystemResetWarning,0830.6,5.00,000.00,021.7,020.9,000.0,030.1,023.1,7.6,0000.0,0009.77,0003.14,0002.24
2023-11-11 12:22:00,SystemResetWarning,0830.6,5.01,000.00,021.7,020.9,000.0,030.1,023.1,7.7,0000.0,0009.78,0003.15,0002.23
2023-11-11 12:23:00,SystemResetWarning,0830.8,5.00,000.00,021.7,020.9,000.0,030.1,023.1,7.6,0000.0,0009.19,0003.16,0002.24
2023-11-11 12:24:00,SystemResetWarning,0830.4,5.00,000.00,021.7,020.9,000.0,030.1,023.1,7.5,0000.0,0008.89,0003.16,0002.24
2023-11-11 12:25:00,SystemResetWarning,0830.5,5.00,000.00,021.7,020.9,000.0,030.1,023.2,7.4,0000.0,0007.91,0003.15,0002.22
2023-11-11 12:26:00,SystemResetWarning,0830.5,5.01,000.00,021.7,020.9,000.0,030.1,023.2,7.2,0000.0,0007.32,0003.15,0002.20
2023-11-11 12:27:00,SystemResetWarning,0830.4,5.00,000.00,021.7,020.9,000.0,030.1,023.2,7.1,0000.0,0007.31,0003.15,0002.20
2023-11-11 12:28:00,SystemResetWarning,0830.5,5.00,000.00,021.7,020.9,000.0,030.1,023.1,7.0,0000.0,0007.19,0003.12,0002.21
2023-11-11 12:29:00,SystemResetWarning,0830.4,4.99,000.00,021.7,020.9,000.0,030.1,023.1,7.0,0000.0,0006.66,0003.10,0002.21
2023-11-11 12:30:00,SystemResetWarning,0830.5,5.00,000.00,021.7,020.9,000.0,030.1,023.1,7.3,0000.0,0006.32,0003.09,0002.22
2023-11-11 12:31:00,SystemResetWarning,0830.5,5.00,000.00,021.7,020.8,000.0,030.1,023.2,7.2,0000.0,0005.72,0003.06,0002.21
2023-11-11 12:32:00,SystemResetWarning,0830.4,5.00,000.00,021.7,020.9,000.0,030.1,023.1,7.2,0000.0,0005.48,0003.07,0002.21
2023-11-11 12:33:00,SystemResetWarning,0830.4,5.00,000.00,021.7,020.9,000.0,030.1,023.2,7.2,0000.0,0005.59,0003.10,0002.22
2023-11-11 12:34:00,SystemResetWarning,0830.6,5.00,000.00,021.7,020.9,000.0,030.1,023.2,7.1,0000.0,0005.44,0003.09,0002.22
2023-11-11 12:35:00,SystemResetWarning,0830.7,5.00,000.00,021.7,020.9,000.0,030.1,023.2,7.1,0000.0,0006.21,0003.12,0002.24
2023-11-11 12:36:00,SystemResetWarning,0830.6,5.00,000.00,021.7,020.9,000.0,030.1,023.2,7.2,0000.0,0006.15,0003.13,0002.25
2023-11-11 12:37:00,SystemResetWarning,0830.6,5.00,000.00,021.8,020.9,000.0,030.1,023.2,7.2,0000.0,0006.10,0003.11,0002.27
2023-11-11 12:38:00,SystemResetWarning,0830.6,5.01,000.00,021.8,020.9,000.0,030.1,023.2,7.2,0000.0,0005.96,0003.09,0002.27
2023-11-11 12:39:00,SystemResetWarning,0830.7,5.00,000.00,021.8,020.9,000.0,030.1,023.2,7.3,0000.0,0006.11,0003.08,0002.28
2023-11-11 12:40:00,SystemResetWarning,0830.7,5.00,000.00,021.8,020.9,000.0,030.1,023.2,7.3,0000.0,0006.67,0003.09,0002.28
2023-11-11 12:41:00,SystemResetWarning,0830.7,4.99,000.00,021.8,020.9,000.0,030.1,023.2,7.3,0000.0,0006.48,0003.11,0002.28
2023-11-11 12:42:00,SystemResetWarning,0830.7,4.99,000.00,021.8,020.9,000.0,030.1,023.2,7.4,0000.0,0006.61,0003.12,0002.29
2023-11-11 12:43:00,SystemResetWarning,0830.7,5.00,000.00,021.8,020.9,000.0,030.1,023.2,7.3,0000.0,0006.59,0003.11,0002.29
2023-11-11 12:44:00,SystemResetWarning,0830.7,5.01,000.00,021.8,020.9,000.0,030.1,023.2,7.2,0000.0,0006.46,0003.08,0002.29
2023-11-11 12:45:00,SystemResetWarning,0830.7,5.01,000.00,021.8,020.9,000.0,030.1,023.2,7.2,0000.0,0006.35,0003.05,0002.27
2023-11-11 12:46:00,SystemResetWarning,0830.7,5.00,000.00,021.8,020.9,000.0,030.1,023.2,7.1,0000.0,0005.43,0002.96,0002.27
2023-11-11 12:47:00,SystemResetWarning,0830.7,5.00,000.00,021.8,020.9,000.0,030.1,023.2,7.1,0000.0,0005.72,0003.00,0002.28
2023-11-11 12:48:00,SystemResetWarning,0830.7,5.00,000.00,021.8,020.9,000.0,030.1,023.3,7.2,0000.0,0005.77,0003.00,0002.28
2023-11-11 12:49:00,SystemResetWarning,0830.7,5.00,000.00,021.8,020.9,000.0,030.1,023.2,7.1,0000.0,0005.83,0003.03,0002.29
2023-11-11 12:50:00,SystemResetWarning,0830.7,5.00,000.00,021.8,020.9,000.0,030.1,023.2,7.4,0000.0,0005.75,0003.06,0002.29
2023-11-11 12:51:00,SystemResetWarning,0830.7,5.00,000.00,021.8,020.9,000.0,030.1,023.2,7.4,0000.0,0005.18,0003.04,0002.30
2023-11-11 12:52:00,SystemResetWarning,0830.7,5.00,000.00,021.8,020.9,000.0,030.1,023.2,7.3,0000.0,0005.12,0003.05,0002.32
2023-11-11 12:53:00,SystemResetWarning,0830.7,5.00,000.00,021.8,020.9,000.0,030.1,023.2,7.3,0000.0,0005.24,0003.10,0002.32
2023-11-11 12:54:00,SystemResetWarning,0830.7,5.00,000.00,021.8,020.9,000.0,030.1,023.2,7.3,0000.0,0005.44,0003.13,0002.33
2023-11-11 12:55:00,SystemResetWarning,0830.7,5.01,000.00,021.8,021.0,000.0,030.1,023.2,7.3,0000.0,0005.60,0003.16,0002.33
2023-11-11 12:56:00,SystemResetWarning,0830.7,5.01,000.00,021.8,021.0,000.0,030.1,023.2,7.4,0000.0,0005.73,0003.17,0002.35
2023-11-11 12:57:00,SystemResetWarning,0830.7,4.99,000.00,021.8,021.0,000.0,030.1,023.3,7.5,0000.0,0005.86,0003.18,0002.36
2023-11-11 12:58:00,SystemResetWarning,0830.7,4.99,000.00,021.8,021.0,000.0,030.1,023.3,7.3,0000.0,0005.62,0003.17,0002.36
2023-11-11 12:59:00,SystemResetWarning,0830.8,5.00,000.00,021.8,020.9,000.0,030.1,023.2,7.2,0000.0,0006.12,0003.16,0002.36
